Regional Weather Roundup
Issued by NWS Memphis, TN

Home | Current Version | Previous Version | Text Only | Print | Product List | Glossary On
Versions: 1 2 3 4 5 6 7 8 9 10 11 12 13 14 15 16 17 18 19 20 21 22 23 24 25 26 27 28 29 30 31 32 33 34 35 36 37 38 39 40 41 42 43 44 45 46 47 48 49 50
000
ASUS44 KMEG 191800
RWRMEG
MEMPHIS CWA HOURLY WEATHER ROUNDUP
NATIONAL WEATHER SERVICE MEMPHIS TN
100 PM CDT THU OCT 19 2017

...WEST TENNESSEE...

CITY           SKY/WX    TMP DP  RH WIND       PRES   REMARKS
MEMPHIS INTL   FAIR      75  51  43 CALM      30.25F
6HR MIN TEMP:  49; 6HR MAX TEMP:  75;

NWS MEMPHIS      N/A     74 N/A N/A MISG        N/A
JACKSON        FAIR      73  48  41 VRB3      30.26F
6HR MIN TEMP:  40; 6HR MAX TEMP:  73;



...EASTERN ARKANSAS...

CITY           SKY/WX    TMP DP  RH WIND       PRES   REMARKS
JONESBORO      FAIR      76  55  48 SW8       30.23F
6HR MIN TEMP:  48; 6HR MAX TEMP:  76;

WEST MEMPHIS   FAIR      73  51  46 VRB5      30.24F
6HR MIN TEMP:  49; 6HR MAX TEMP:  73;

BATESVILLE     FAIR      77  53  43 CALM      30.22F
6HR MIN TEMP:  48; 6HR MAX TEMP:  78;

NEWPORT        FAIR      76  53  44 SW8       30.23F
6HR MIN TEMP:  46; 6HR MAX TEMP:  76;

WALNUT RIDGE   FAIR      76  53  44 S8        30.22F
BLYTHEVILLE    FAIR      74  51  44 CALM      30.25F
6HR MIN TEMP:  50; 6HR MAX TEMP:  74;

SEARCY         FAIR      73  57  57 SE6       30.23F
6HR MIN TEMP:  44; 6HR MAX TEMP:  73;

STUTTGART      FAIR      77  52  41 CALM      30.23F
6HR MIN TEMP:  47; 6HR MAX TEMP:  77; 6HR PCP: TRACE;

PINE BLUFF     FAIR      76  52  43 MISG      30.22F
6HR MIN TEMP:  42; 6HR MAX TEMP:  77;

MONTICELLO     FAIR      76  54  46 E3        30.23F
6HR MIN TEMP:  45; 6HR MAX TEMP:  77;



...NORTH MISSISSIPPI...

CITY           SKY/WX    TMP DP  RH WIND       PRES   REMARKS
TUPELO         FAIR      74  49  41 SW6       30.26F
6HR MIN TEMP:  41; 6HR MAX TEMP:  74;

OXFORD         FAIR      72  50  46 CALM      30.27F
OLIVE BRANCH   MOSUNNY  N/A N/A N/A CALM      30.24F
TUNICA           N/A    N/A N/A N/A CALM      30.26F
CLARKSDALE       N/A     75  52  43 VRB5      30.25F
GREENWOOD      FAIR      76  51  41 N3        30.24F
6HR MIN TEMP:  47; 6HR MAX TEMP:  77;

COLUMBUS       FAIR      73  55  51 S3        30.25F
6HR MIN TEMP:  41; 6HR MAX TEMP:  74;

STARKVILLE     FAIR      73  52  46 SE5       30.28F
GOLDEN TRIANGL FAIR      73  50  44 CALM      30.26F
6HR MIN TEMP:  42; 6HR MAX TEMP:  74;



...SOUTHEAST MISSOURI...

CITY           SKY/WX    TMP DP  RH WIND       PRES   REMARKS
KENNETT        FAIR      77  50  38 S8G14     30.22F
MALDEN         FAIR      75  50  41 SW7       30.24F
WEST PLAINS    FAIR      76  48  37 CALM      30.23F
6HR MIN TEMP:  44; 6HR MAX TEMP:  77;

POPLAR BLUFF   FAIR      75  52  44 S7        30.22F
6HR MIN TEMP:  44; 6HR MAX TEMP:  75;

CAPE GIRARDEAU FAIR      75  50  41 MISG      30.22F
6HR MIN TEMP:  48; 6HR MAX TEMP:  75;



...NORTHWEST ALABAMA...

CITY           SKY/WX    TMP DP  RH WIND       PRES   REMARKS
MUSCLE SHOALS  FAIR      75  46  35 CALM      30.29F
6HR MIN TEMP:  42; 6HR MAX TEMP:  75;



...MIDDLE TENNESSEE...

CITY           SKY/WX    TMP DP  RH WIND       PRES   REMARKS
NASHVILLE      FAIR      74  44  34 CALM      30.29F
6HR MIN TEMP:  44; 6HR MAX TEMP:  74;

CLARKSVILLE    FAIR      71  47  42 SW6       30.27F
6HR MIN TEMP:  43; 6HR MAX TEMP:  72;



...WESTERN KENTUCKY...

CITY           SKY/WX    TMP DP  RH WIND       PRES   REMARKS
PADUCAH        FAIR      75  48  38 SW9       30.23F
6HR MIN TEMP:  46; 6HR MAX TEMP:  75;

FORT CAMPBELL  FAIR      72  48  43 W6        30.26F
6HR MIN TEMP:  46; 6HR MAX TEMP:  72;



...CENTRAL ARKANSAS...

CITY           SKY/WX    TMP DP  RH WIND       PRES   REMARKS
LITTLE ROCK    PTSUNNY   77  55  46 CALM      30.22F
6HR MIN TEMP:  47; 6HR MAX TEMP:  77;



SKY/WX REPORTED AS FAIR MEANS FEW OR NO CLOUDS BELOW
12 THOUSAND FEET.





USA.gov is the U.S. government's official web portal to all federal, state and local government web resources and services.